Track STARLINK-1696 now! 10-day predictions STARLINK-1696 is classified as:
1 46545U 20070P 24325.88943164 .00004899 00000-0 34737-3 0 9999 2 46545 53.0520 143.5894 0001395 87.1503 272.9645 15.06420411228097